AU860 Weather Reports


Display with metric or nautical units.
time (UTC)temp
F
wind
direction
speed
MPH
gust
MPH
rain 1hr
in
rain 24hr
in
rain mn
in
humidity
%
barometer
mb
20260504100342 41 46 0.0 1.0 0.00 0.00 0.00 86 1015.1
20260504081652 40 314 0.0 2.0 0.00 0.00 0.00 84 1015.2
20260504081146 40 15 1.0 3.0 0.00 0.00 0.00 84 1015.1
20260504080640 40 314 1.0 3.0 0.00 0.00 0.00 84 1015.1
20260504080133 40 314 1.0 4.0 0.00 0.00 0.00 83 1015.1
20260504070112 42 269 0.0 1.0 0.00 0.00 0.00 78 1015.1
20260504060110 44 269 2.0 3.0 0.00 0.00 0.00 77 1015.1
20260504050513 45 269 1.0 3.0 0.00 0.00 0.00 75 1015.2
20260504050007 45 253 1.0 3.0 0.00 0.00 0.00 75 1015.2
20260504045501 45 1 1.0 3.0 0.00 0.00 0.00 75 1015.2
20260504044955 45 257 1.0 3.0 0.00 0.00 0.00 75 1015.2
20260504044449 45 314 1.0 3.0 0.00 0.00 0.00 76 1015.2
20260504043943 45 269 1.0 3.0 0.00 0.00 0.00 76 1015.2
20260504043654 44 223 1.0 3.0 0.00 0.00 0.00 76 1015.1
20260504042931 44 269 1.0 3.0 0.00 0.00 0.00 76 1015.1
20260504042425 44 269 1.0 2.0 0.00 0.00 0.00 76 1015.1
20260504042145 44 269 1.0 2.0 0.00 0.00 0.00 76 1015.0
20260504041413 44 253 1.0 3.0 0.00 0.00 0.00 76 1014.8
20260504040907 44 250 1.0 3.0 0.00 0.00 0.00 76 1014.8
20260504040401 44 269 1.0 3.0 0.00 0.00 0.00 76 1014.8
20260504040118 44 314 1.0 3.0 0.00 0.00 0.00 76 1014.8
20260504035351 44 1 1.0 3.0 0.00 0.00 0.00 76 1014.8
20260504035108 44 296 1.0 2.0 0.00 0.00 0.00 76 1014.8
20260504034340 44 296 1.0 2.0 0.00 0.00 0.00 76 1014.8
20260504033834 44 1 1.0 2.0 0.00 0.00 0.00 76 1014.7
20260504033329 43 178 1.0 2.0 0.00 0.00 0.00 77 1014.7
20260504032821 43 245 1.0 2.0 0.00 0.00 0.00 77 1014.6
20260504032315 43 296 1.0 2.0 0.00 0.00 0.00 77 1014.6
20260504032029 43 314 1.0 2.0 0.00 0.00 0.00 77 1014.6
20260504031304 43 314 1.0 2.0 0.00 0.00 0.00 77 1014.6
20260504031019 43 269 0.0 2.0 0.00 0.00 0.00 77 1014.6
20260504030256 44 314 0.0 2.0 0.00 0.00 0.00 76 1014.6
20260504025756 44 269 0.0 1.0 0.00 0.00 0.00 76 1014.5
20260504025253 44 1 0.0 1.0 0.00 0.00 0.00 76 1014.5
20260504024751 44 314 0.0 1.0 0.00 0.00 0.00 75 1014.5
20260504024252 44 331 0.0 1.0 0.00 0.00 0.00 75 1014.5
20260504023752 45 46 0.0 1.0 0.00 0.00 0.00 75 1014.5
20260504023512 45 89 0.0 1.0 0.00 0.00 0.00 75 1014.6
20260504022748 45 89 0.0 1.0 0.00 0.00 0.00 75 1014.5
20260504022506 46 269 0.0 1.0 0.00 0.00 0.00 74 1014.5
20260504021748 46 46 0.0 1.0 0.00 0.00 0.00 74 1014.5
20260504021248 46 269 0.0 1.0 0.00 0.00 0.00 74 1014.5
20260504020748 47 46 0.0 1.0 0.00 0.00 0.00 74 1014.5
20260504020247 47 223 0.0 2.0 0.00 0.00 0.00 74 1014.6
20260504020012 47 269 0.0 2.0 0.00 0.00 0.00 73 1014.5
20260504015243 47 1 0.0 2.0 0.00 0.00 0.00 72 1014.6
20260504014743 48 46 0.0 1.0 0.00 0.00 0.00 71 1014.5
20260504014244 48 269 0.0 2.0 0.00 0.00 0.00 71 1014.5
20260504014003 48 46 0.0 2.0 0.00 0.00 0.00 71 1014.4
20260504013244 49 314 0.0 1.0 0.00 0.00 0.00 70 1014.4
20260504012742 49 46 0.0 1.0 0.00 0.00 0.00 70 1014.3
20260504012242 49 269 0.0 1.0 0.00 0.00 0.00 70 1014.3
20260504011739 50 269 0.0 2.0 0.00 0.00 0.00 70 1014.3
20260504011503 50 269 0.0 2.0 0.00 0.00 0.00 69 1014.2
20260504010741 50 314 0.0 2.0 0.00 0.00 0.00 69 1014.1
20260504010239 51 269 1.0 2.0 0.00 0.00 0.00 68 1014.1
20260504005954 51 46 1.0 2.0 0.00 0.00 0.00 68 1014.0
20260504005225 52 258 1.0 2.0 0.00 0.00 0.00 67 1013.9
20260504004719 52 269 1.0 2.0 0.00 0.00 0.00 65 1013.9
20260504004213 53 269 0.0 2.0 0.00 0.00 0.00 65 1013.9
20260504003707 53 1 0.0 2.0 0.00 0.00 0.00 64 1013.8
20260504003201 53 1 1.0 2.0 0.00 0.00 0.00 63 1013.7
20260504002654 54 241 1.0 2.0 0.00 0.00 0.00 63 1013.7
20260504002148 54 241 0.0 2.0 0.00 0.00 0.00 61 1013.7
20260504001643 55 269 1.0 2.0 0.00 0.00 0.00 61 1013.6
20260504001137 55 314 1.0 2.0 0.00 0.00 0.00 60 1013.5
20260504000631 55 303 1.0 2.0 0.00 0.00 0.00 59 1013.4
20260504000125 56 269 0.0 2.0 0.00 0.00 0.00 59 1013.4
20260503235620 56 46 0.0 3.0 0.00 0.00 0.00 58 1013.4
20260503235113 56 46 1.0 3.0 0.00 0.00 0.00 56 1013.3
20260503234654 56 223 1.0 4.0 0.00 0.00 0.00 56 1013.3
20260503233555 57 223 2.0 6.0 0.00 0.00 0.00 57 1013.2
20260503233049 57 144 2.0 6.0 0.00 0.00 0.00 56 1013.2
20260503232542 57 1 2.0 6.0 0.00 0.00 0.00 56 1013.3
20260503232036 58 257 2.0 6.0 0.00 0.00 0.00 55 1013.2
20260503231530 58 89 2.0 6.0 0.00 0.00 0.00 54 1013.2
20260503231025 58 145 3.0 7.0 0.00 0.00 0.00 53 1013.2
20260503230740 58 319 3.0 8.0 0.00 0.00 0.00 53 1013.2
20260503230019 59 20 3.0 9.0 0.00 0.00 0.00 52 1013.2
20260503225519 59 252 3.0 10.0 0.00 0.00 0.00 53 1013.2
20260503225019 59 122 2.0 10.0 0.00 0.00 0.00 53 1013.1
20260503224519 59 269 2.0 8.0 0.00 0.00 0.00 52 1013.1
20260503224019 59 117 2.0 7.0 0.00 0.00 0.00 54 1013.1
20260503223519 59 135 3.0 10.0 0.00 0.00 0.00 53 1013.1
20260503223019 59 76 3.0 10.0 0.00 0.00 0.00 52 1013.0
20260503222518 60 299 3.0 9.0 0.00 0.00 0.00 52 1013.1
20260503222019 60 159 2.0 6.0 0.00 0.00 0.00 54 1013.1
20260503221519 60 89 2.0 6.0 0.00 0.00 0.00 53 1013.1
20260503221018 60 250 3.0 11.0 0.00 0.00 0.00 51 1013.1
20260503220517 61 303 3.0 11.0 0.00 0.00 0.00 51 1013.2
20260503220017 61 219 3.0 8.0 0.00 0.00 0.00 51 1013.1
20260503215517 61 100 4.0 12.0 0.00 0.00 0.00 52 1013.1
20260503215014 61 290 3.0 12.0 0.00 0.00 0.00 49 1013.1
20260503214737 61 113 3.0 9.0 0.00 0.00 0.00 53 1013.1
20260503214015 61 278 4.0 13.0 0.00 0.00 0.00 51 1012.9
20260503213515 61 23 4.0 13.0 0.00 0.00 0.00 51 1013.1
20260503213236 61 98 3.0 11.0 0.00 0.00 0.00 52 1013.1
20260503212514 61 178 3.0 9.0 0.00 0.00 0.00 53 1013.0
20260503212015 61 284 4.0 9.0 0.00 0.00 0.00 51 1013.0
20260503211515 61 206 3.0 11.0 0.00 0.00 0.00 51 1013.0
20260503211014 61 8 3.0 12.0 0.00 0.00 0.00 57 1013.0
20260503210514 61 127 3.0 12.0 0.00 0.00 0.00 51 1013.1
20260503210238 60 237 4.0 15.0 0.00 0.00 0.00 53 1013.1
20260503205515 60 178 5.0 15.0 0.00 0.00 0.00 51 1013.1
20260503205013 60 283 4.0 12.0 0.00 0.00 0.00 52 1013.0
20260503204512 60 245 4.0 13.0 0.00 0.00 0.00 54 1013.1
20260503204013 60 40 5.0 15.0 0.00 0.00 0.00 52 1013.1
20260503203513 61 303 4.0 15.0 0.00 0.00 0.00 53 1013.1
20260503203012 61 276 4.0 14.0 0.00 0.00 0.00 54 1013.0
20260503202512 60 132 4.0 13.0 0.00 0.00 0.00 55 1013.1
20260503202013 60 283 4.0 13.0 0.00 0.00 0.00 55 1013.2
20260503201512 60 11 4.0 11.0 0.00 0.00 0.00 57 1013.4
20260503201231 60 89 4.0 12.0 0.00 0.00 0.00 55 1013.4
20260503200513 60 241 4.0 17.0 0.00 0.00 0.00 54 1013.4
20260503200013 60 54 4.0 17.0 0.00 0.00 0.00 56 1013.5
20260503195512 60 122 4.0 17.0 0.00 0.00 0.00 57 1013.5
20260503195233 60 68 5.0 17.0 0.00 0.00 0.00 54 1013.5
20260503194511 59 336 5.0 13.0 0.00 0.00 0.00 55 1013.6
20260503194005 59 28 4.0 12.0 0.00 0.00 0.00 54 1013.6
20260503193459 60 34 3.0 12.0 0.00 0.00 0.00 57 1013.6
20260503192953 59 286 4.0 15.0 0.00 0.00 0.00 59 1013.7
20260503192448 58 309 5.0 15.0 0.00 0.00 0.00 59 1013.7
20260503191942 58 257 4.0 15.0 0.00 0.00 0.00 60 1013.8
20260503191436 58 175 4.0 19.0 0.00 0.00 0.00 57 1014.0
20260503190930 58 223 4.0 19.0 0.00 0.00 0.00 54 1014.0
20260503190424 58 350 3.0 13.0 0.00 0.00 0.00 58 1013.9
20260503190150 58 81 3.0 10.0 0.00 0.00 0.00 63 1013.9
20260503185645 58 42 4.0 10.0 0.00 0.00 0.00 56 1014.0
20260503184920 58 206 4.0 15.0 0.00 0.00 0.00 58 1014.1
20260503184420 58 162 4.0 15.0 0.00 0.00 0.00 57 1014.1
20260503183920 57 108 5.0 15.0 0.00 0.00 0.00 64 1014.0
20260503183420 56 139 5.0 16.0 0.00 0.00 0.00 57 1014.2
20260503183403 56 72 4.0 16.0 0.00 0.00 0.00 57 1014.3
20260503182421 57 269 4.0 13.0 0.00 0.00 0.00 59 1014.3
20260503181920 57 285 4.0 16.0 0.00 0.00 0.00 59 1014.1
20260503181420 58 76 4.0 16.0 0.00 0.00 0.00 64 1014.3
20260503181147 57 299 4.0 13.0 0.00 0.00 0.00 57 1014.2
20260503180420 56 100 5.0 13.0 0.00 0.00 0.00 57 1014.4
20260503175920 56 281 5.0 13.0 0.00 0.00 0.00 58 1014.3
20260503175420 57 296 4.0 13.0 0.00 0.00 0.00 58 1014.3
20260503174921 56 322 3.0 13.0 0.00 0.00 0.00 65 1014.4
20260503174420 56 235 5.0 14.0 0.00 0.00 0.00 59 1014.5
20260503173920 56 178 5.0 14.0 0.00 0.00 0.00 67 1014.5
20260503173413 56 222 4.0 13.0 0.00 0.00 0.00 62 1014.5
20260503172908 56 25 4.0 14.0 0.00 0.00 0.00 60 1014.3
20260503172402 55 46 4.0 14.0 0.00 0.00 0.00 61 1014.4
20260503171856 55 327 4.0 12.0 0.00 0.00 0.00 60 1014.5
20260503171354 55 220 5.0 16.0 0.00 0.00 0.00 60 1014.6
20260503170853 54 321 4.0 16.0 0.00 0.00 0.00 63 1014.7
20260503170353 54 37 5.0 13.0 0.00 0.00 0.00 64 1014.7
20260503150834 52 338 3.0 12.0 0.00 0.00 0.00 70 1015.1
20260503150546 50 89 3.0 9.0 0.00 0.00 0.00 70 1015.1
20260503140217 49 41 3.0 8.0 0.00 0.00 0.00 71 1015.2
20260503131116 46 245 4.0 12.0 0.00 0.00 0.00 75 1015.0
20260503130833 45 89 4.0 11.0 0.00 0.00 0.00 74 1014.9
20260503130106 45 269 3.0 9.0 0.00 0.00 0.00 75 1014.9
20260503110522 43 1 1.0 4.0 0.00 0.00 0.00 78 1014.0